Time,TemperatureF,DewpointF,PressureIn,WindDirection,WindDirectionDegrees,WindSpeedMPH,WindSpeedGustMPH,Humidity,HourlyPrecipIn,Conditions,Clouds,dailyrainin,SoftwareType,DateUTC
2013-03-15 00:06:00,31.3,28.0,29.88,NE,53,0.0,0.0,91,0.00,,,0.00,TxWx,2013-03-15 05:06:00,
2013-03-15 00:11:00,31.3,28.0,29.88,ENE,57,0.0,0.0,91,0.00,,,0.00,TxWx,2013-03-15 05:11:00,
2013-03-15 00:16:00,31.3,28.0,29.88,NE,56,0.0,0.0,91,0.00,,,0.00,TxWx,2013-03-15 05:16:00,
2013-03-15 00:21:00,31.2,28.0,29.88,ENE,57,0.0,0.0,91,0.00,,,0.00,TxWx,2013-03-15 05:21:00,
2013-03-15 00:27:00,31.1,28.0,29.88,ENE,59,0.0,0.0,91,0.00,,,0.00,TxWx,2013-03-15 05:27:00,
2013-03-15 00:32:00,31.0,28.0,29.88,NE,51,0.0,0.0,91,0.00,,,0.00,TxWx,2013-03-15 05:32:00,
2013-03-15 00:41:00,30.9,28.0,29.88,ENE,60,0.0,0.0,92,0.00,,,0.00,TxWx,2013-03-15 05:41:00,
2013-03-15 00:46:00,30.9,28.0,29.88,NE,52,0.0,0.0,92,0.00,,,0.00,TxWx,2013-03-15 05:46:00,
2013-03-15 00:51:00,30.8,28.0,29.88,NE,52,0.0,0.0,92,0.00,,,0.00,TxWx,2013-03-15 05:51:00,
2013-03-15 01:01:00,30.8,28.0,29.87,NE,53,0.0,0.0,92,0.00,,,0.00,TxWx,2013-03-15 06:01:00,
2013-03-15 01:06:00,30.6,28.0,29.87,ENE,62,0.0,0.0,92,0.00,,,0.00,TxWx,2013-03-15 06:06:00,
2013-03-15 01:11:00,30.5,28.0,29.86,NE,52,0.0,0.0,92,0.00,,,0.00,TxWx,2013-03-15 06:11:00,
2013-03-15 01:16:00,30.5,27.0,29.86,NE,53,0.0,0.0,92,0.00,,,0.00,TxWx,2013-03-15 06:16:00,
2013-03-15 01:26:00,30.4,27.0,29.86,ENE,57,0.0,0.0,92,0.00,,,0.00,TxWx,2013-03-15 06:26:00,
2013-03-15 01:31:00,30.3,27.0,29.86,NE,51,0.0,0.0,92,0.00,,,0.00,TxWx,2013-03-15 06:31:00,
2013-03-15 01:41:00,30.2,27.0,29.85,NE,52,0.0,0.0,92,0.00,,,0.00,TxWx,2013-03-15 06:41:00,
2013-03-15 01:46:00,30.1,27.0,29.85,NE,51,0.0,0.0,92,0.00,,,0.00,TxWx,2013-03-15 06:46:00,
2013-03-15 01:51:00,30.0,27.0,29.85,NE,49,0.0,0.0,93,0.00,,,0.00,TxWx,2013-03-15 06:51:00,
2013-03-15 01:56:00,30.0,27.0,29.85,ENE,59,0.0,0.0,93,0.00,,,0.00,TxWx,2013-03-15 06:56:00,
2013-03-15 02:06:00,29.9,27.0,29.85,NE,53,0.0,0.0,93,0.00,,,0.00,TxWx,2013-03-15 07:06:00,
2013-03-15 02:11:00,29.8,27.0,29.85,NE,55,0.0,0.0,93,0.00,,,0.00,TxWx,2013-03-15 07:11:00,
2013-03-15 02:17:00,29.8,27.0,29.85,NE,51,0.0,0.0,93,0.00,,,0.00,TxWx,2013-03-15 07:17:00,
2013-03-15 02:25:00,29.7,27.0,29.84,NE,47,0.0,0.0,93,0.00,,,0.00,TxWx,2013-03-15 07:25:00,
2013-03-15 02:31:00,29.8,27.0,29.84,ENE,66,0.0,0.0,93,0.00,,,0.00,TxWx,2013-03-15 07:31:00,
2013-03-15 02:36:00,29.8,27.0,29.84,ENE,58,0.0,0.0,93,0.00,,,0.00,TxWx,2013-03-15 07:36:00,
2013-03-15 02:41:00,29.7,27.0,29.84,NE,54,0.0,0.0,93,0.00,,,0.00,TxWx,2013-03-15 07:41:00,
2013-03-15 02:46:00,29.7,27.0,29.83,ENE,61,0.0,0.0,93,0.00,,,0.00,TxWx,2013-03-15 07:46:00,
2013-03-15 02:51:00,29.7,27.0,29.83,ENE,59,0.0,0.0,93,0.00,,,0.00,TxWx,2013-03-15 07:51:00,
2013-03-15 02:57:00,29.7,27.0,29.83,NE,54,0.0,0.0,93,0.00,,,0.00,TxWx,2013-03-15 07:57:00,
2013-03-15 03:02:00,29.7,27.0,29.83,ENE,61,0.0,0.0,93,0.00,,,0.00,TxWx,2013-03-15 08:02:00,
2013-03-15 03:11:00,29.7,27.0,29.82,ENE,60,0.0,0.0,94,0.00,,,0.00,TxWx,2013-03-15 08:11:00,
2013-03-15 03:16:00,29.8,27.0,29.82,ENE,63,0.0,0.0,94,0.00,,,0.00,TxWx,2013-03-15 08:16:00,
2013-03-15 03:21:00,29.9,27.0,29.81,ENE,66,0.0,0.0,94,0.00,,,0.00,TxWx,2013-03-15 08:21:00,
2013-03-15 03:31:00,30.0,27.0,29.81,ENE,64,0.0,0.0,93,0.00,,,0.00,TxWx,2013-03-15 08:31:00,
2013-03-15 03:36:00,30.0,27.0,29.81,ENE,66,0.0,0.0,93,0.00,,,0.00,TxWx,2013-03-15 08:36:00,
2013-03-15 03:42:00,30.0,27.0,29.80,ENE,70,0.0,0.0,93,0.00,,,0.00,TxWx,2013-03-15 08:42:00,
2013-03-15 03:47:00,30.0,27.0,29.80,ENE,62,0.0,0.0,93,0.00,,,0.00,TxWx,2013-03-15 08:47:00,
2013-03-15 03:56:00,30.0,27.0,29.80,ENE,61,0.0,0.0,93,0.00,,,0.00,TxWx,2013-03-15 08:56:00,
2013-03-15 04:01:00,29.9,27.0,29.80,ENE,62,0.0,0.0,93,0.00,,,0.00,TxWx,2013-03-15 09:01:00,
2013-03-15 04:06:00,30.0,27.0,29.80,ENE,68,0.0,0.0,93,0.00,,,0.00,TxWx,2013-03-15 09:06:00,
2013-03-15 04:11:00,30.0,27.0,29.80,ENE,63,0.0,0.0,93,0.00,,,0.00,TxWx,2013-03-15 09:11:00,
2013-03-15 04:17:00,30.0,27.0,29.79,ENE,64,0.0,0.0,93,0.00,,,0.00,TxWx,2013-03-15 09:17:00,
2013-03-15 04:22:00,30.0,27.0,29.79,ENE,58,0.0,0.0,93,0.00,,,0.00,TxWx,2013-03-15 09:22:00,
2013-03-15 04:27:00,30.0,27.0,29.79,ENE,59,0.0,0.0,93,0.00,,,0.00,TxWx,2013-03-15 09:27:00,
2013-03-15 04:32:00,30.0,27.0,29.79,ENE,63,0.0,0.0,93,0.00,,,0.00,TxWx,2013-03-15 09:32:00,
2013-03-15 04:38:00,30.0,27.0,29.78,ENE,66,0.0,0.0,93,0.00,,,0.00,TxWx,2013-03-15 09:38:00,
2013-03-15 04:46:00,29.9,27.0,29.78,ENE,58,0.0,0.0,93,0.00,,,0.00,TxWx,2013-03-15 09:46:00,
2013-03-15 04:56:00,29.8,27.0,29.78,ENE,74,0.0,0.0,93,0.00,,,0.00,TxWx,2013-03-15 09:56:00,
2013-03-15 05:01:00,29.7,27.0,29.78,NE,51,0.0,0.0,93,0.00,,,0.00,TxWx,2013-03-15 10:01:00,
2013-03-15 05:06:00,29.7,27.0,29.78,NE,52,0.0,0.0,93,0.00,,,0.00,TxWx,2013-03-15 10:06:00,
2013-03-15 05:15:00,29.6,27.0,29.77,NE,50,0.0,0.0,93,0.00,,,0.00,TxWx,2013-03-15 10:15:00,
2013-03-15 05:21:00,29.5,27.0,29.77,NE,45,0.0,0.0,93,0.00,,,0.00,TxWx,2013-03-15 10:21:00,
2013-03-15 05:26:00,29.4,26.0,29.77,ENE,57,0.0,0.0,93,0.00,,,0.00,TxWx,2013-03-15 10:26:00,
2013-03-15 05:31:00,29.4,26.0,29.77,NE,44,0.0,0.0,93,0.00,,,0.00,TxWx,2013-03-15 10:31:00,
2013-03-15 05:37:00,29.3,26.0,29.76,NE,46,0.0,0.0,93,0.00,,,0.00,TxWx,2013-03-15 10:37:00,
2013-03-15 05:42:00,29.2,26.0,29.76,NE,46,0.0,0.0,93,0.00,,,0.00,TxWx,2013-03-15 10:42:00,
2013-03-15 05:47:00,29.2,26.0,29.76,NE,50,0.0,0.0,93,0.00,,,0.00,TxWx,2013-03-15 10:47:00,
2013-03-15 05:56:00,29.2,26.0,29.76,NE,48,0.0,0.0,93,0.00,,,0.00,TxWx,2013-03-15 10:56:00,
2013-03-15 06:01:00,29.2,26.0,29.76,NE,47,0.0,0.0,93,0.00,,,0.00,TxWx,2013-03-15 11:01:00,
2013-03-15 06:06:00,29.2,26.0,29.76,NE,51,0.0,0.0,93,0.00,,,0.00,TxWx,2013-03-15 11:06:00,
2013-03-15 06:11:00,29.2,26.0,29.76,NE,50,0.0,0.0,93,0.00,,,0.00,TxWx,2013-03-15 11:11:00,
2013-03-15 06:16:00,29.1,26.0,29.76,NE,51,0.0,0.0,93,0.00,,,0.00,TxWx,2013-03-15 11:16:00,
2013-03-15 06:21:00,29.1,26.0,29.76,ENE,65,0.0,0.0,93,0.00,,,0.00,TxWx,2013-03-15 11:21:00,
2013-03-15 06:31:00,29.0,26.0,29.75,ENE,71,0.0,0.0,93,0.00,,,0.00,TxWx,2013-03-15 11:31:00,
2013-03-15 06:36:00,29.0,26.0,29.76,ENE,61,0.0,0.0,94,0.00,,,0.00,TxWx,2013-03-15 11:36:00,
2013-03-15 06:41:00,29.0,26.0,29.75,ENE,62,0.0,0.0,94,0.00,,,0.00,TxWx,2013-03-15 11:41:00,
2013-03-15 06:46:00,28.9,26.0,29.76,ENE,64,0.0,0.0,94,0.00,,,0.00,TxWx,2013-03-15 11:46:00,
2013-03-15 06:51:00,28.9,26.0,29.75,ENE,60,0.0,0.0,94,0.00,,,0.00,TxWx,2013-03-15 11:51:00,
2013-03-15 06:56:00,28.9,26.0,29.75,ENE,59,0.0,0.0,94,0.00,,,0.00,TxWx,2013-03-15 11:56:00,
2013-03-15 07:06:00,28.8,26.0,29.74,ENE,61,0.0,0.0,94,0.00,,,0.00,TxWx,2013-03-15 12:06:00,
2013-03-15 07:11:00,28.8,26.0,29.74,ENE,57,0.0,0.0,94,0.00,,,0.00,TxWx,2013-03-15 12:11:00,
2013-03-15 07:16:00,28.8,26.0,29.74,NE,51,0.0,0.0,94,0.00,,,0.00,TxWx,2013-03-15 12:16:00,
2013-03-15 07:21:00,28.8,26.0,29.74,NE,56,0.0,0.0,94,0.00,,,0.00,TxWx,2013-03-15 12:21:00,
2013-03-15 07:26:00,28.9,26.0,29.74,ENE,59,0.0,0.0,94,0.00,,,0.00,TxWx,2013-03-15 12:26:00,
2013-03-15 07:31:00,28.9,26.0,29.74,ENE,57,0.0,0.0,94,0.00,,,0.00,TxWx,2013-03-15 12:31:00,
2013-03-15 07:41:00,29.0,26.0,29.74,NE,54,0.0,0.0,94,0.00,,,0.00,TxWx,2013-03-15 12:41:00,
2013-03-15 07:46:00,29.1,26.0,29.74,NE,53,0.0,0.0,94,0.00,,,0.00,TxWx,2013-03-15 12:46:00,
2013-03-15 07:51:00,29.2,26.0,29.74,NE,52,0.0,0.0,94,0.00,,,0.00,TxWx,2013-03-15 12:51:00,
2013-03-15 08:01:00,29.4,26.0,29.74,ENE,59,0.0,0.0,94,0.00,,,0.00,TxWx,2013-03-15 13:01:00,
2013-03-15 08:06:00,29.7,27.0,29.73,NE,43,0.0,0.0,94,0.00,,,0.00,TxWx,2013-03-15 13:06:00,
2013-03-15 08:11:00,29.9,27.0,29.74,ENE,57,0.0,0.0,93,0.00,,,0.00,TxWx,2013-03-15 13:11:00,
2013-03-15 08:21:00,30.1,27.0,29.73,ENE,59,0.0,0.0,93,0.00,,,0.00,TxWx,2013-03-15 13:21:00,
2013-03-15 08:32:00,30.6,28.0,29.73,NE,54,0.0,0.0,92,0.00,,,0.00,TxWx,2013-03-15 13:32:00,
2013-03-15 08:40:00,30.9,28.0,29.72,NE,56,0.0,0.0,92,0.00,,,0.00,TxWx,2013-03-15 13:40:00,
2013-03-15 08:46:00,31.2,28.0,29.72,NE,53,0.0,0.0,91,0.00,,,0.00,TxWx,2013-03-15 13:46:00,
2013-03-15 08:53:00,31.5,28.0,29.72,ENE,58,0.0,0.0,90,0.00,,,0.00,TxWx,2013-03-15 13:53:00,
2013-03-15 09:01:00,31.9,28.0,29.72,ENE,62,0.0,0.0,90,0.00,,,0.00,TxWx,2013-03-15 14:01:00,
2013-03-15 09:06:00,32.2,28.0,29.73,NE,54,0.0,0.0,89,0.00,,,0.00,TxWx,2013-03-15 14:06:00,
2013-03-15 09:11:00,32.3,28.0,29.72,NE,54,0.0,0.0,89,0.00,,,0.00,TxWx,2013-03-15 14:11:00,
2013-03-15 09:16:00,32.4,28.0,29.72,ENE,61,0.0,0.0,88,0.00,,,0.00,TxWx,2013-03-15 14:16:00,
2013-03-15 09:26:00,32.8,29.0,29.72,ENE,58,0.0,0.0,88,0.00,,,0.00,TxWx,2013-03-15 14:26:00,
2013-03-15 09:36:00,32.8,29.0,29.72,ENE,63,0.0,0.0,87,0.00,,,0.00,TxWx,2013-03-15 14:36:00,
2013-03-15 09:41:00,33.1,29.0,29.72,ENE,63,0.0,0.0,87,0.00,,,0.00,TxWx,2013-03-15 14:41:00,
2013-03-15 09:46:00,33.0,28.0,29.72,ENE,61,0.0,0.0,87,0.00,,,0.00,TxWx,2013-03-15 14:46:00,
2013-03-15 09:51:00,33.4,29.0,29.73,NW,317,0.0,0.0,87,0.00,,,0.00,TxWx,2013-03-15 14:51:00,
2013-03-15 09:57:00,33.4,28.0,29.72,ENE,58,0.0,0.0,87,0.00,,,0.00,TxWx,2013-03-15 14:57:00,
2013-03-15 10:02:00,33.7,30.0,29.73,ENE,63,0.0,0.0,87,0.00,,,0.00,TxWx,2013-03-15 15:02:00,
2013-03-15 10:07:00,33.7,29.0,29.72,ENE,63,0.0,0.0,87,0.00,,,0.00,TxWx,2013-03-15 15:07:00,
2013-03-15 10:17:00,34.2,29.0,29.72,ENE,61,0.0,0.0,86,0.00,,,0.00,TxWx,2013-03-15 15:17:00,
2013-03-15 10:26:00,34.5,29.0,29.71,ENE,63,0.0,0.0,86,0.00,,,0.00,TxWx,2013-03-15 15:26:00,
2013-03-15 10:36:00,35.2,30.0,29.71,NW,315,0.0,0.0,85,0.00,,,0.00,TxWx,2013-03-15 15:36:00,
2013-03-15 10:41:00,35.5,31.0,29.71,ENE,58,0.0,0.0,84,0.00,,,0.00,TxWx,2013-03-15 15:41:00,
2013-03-15 10:46:00,36.1,30.0,29.71,ENE,62,0.0,0.0,84,0.00,,,0.00,TxWx,2013-03-15 15:46:00,
2013-03-15 10:51:00,36.3,30.0,29.71,ENE,61,0.0,0.0,83,0.00,,,0.00,TxWx,2013-03-15 15:51:00,
2013-03-15 11:01:00,37.4,31.0,29.70,ENE,62,0.0,0.0,81,0.00,,,0.00,TxWx,2013-03-15 16:01:00,
2013-03-15 11:06:00,37.6,32.0,29.70,NW,321,0.0,0.0,79,0.00,,,0.00,TxWx,2013-03-15 16:06:00,
2013-03-15 11:11:00,38.0,31.0,29.69,ENE,59,0.0,0.0,79,0.00,,,0.00,TxWx,2013-03-15 16:11:00,
2013-03-15 11:16:00,38.4,31.0,29.69,ENE,63,0.0,0.0,78,0.00,,,0.00,TxWx,2013-03-15 16:16:00,
2013-03-15 11:21:00,39.6,33.0,29.69,NNW,344,0.0,0.0,77,0.00,,,0.00,TxWx,2013-03-15 16:21:00,
2013-03-15 11:31:00,40.3,33.0,29.69,NE,46,0.0,0.0,75,0.00,,,0.00,TxWx,2013-03-15 16:31:00,
2013-03-15 11:36:00,40.3,31.0,29.69,NNW,331,0.0,0.0,73,0.00,,,0.00,TxWx,2013-03-15 16:36:00,
2013-03-15 11:41:00,41.1,33.0,29.69,NNE,15,0.0,0.0,72,0.00,,,0.00,TxWx,2013-03-15 16:41:00,
2013-03-15 11:47:00,41.3,32.0,29.69,NNE,30,0.0,0.0,71,0.00,,,0.00,TxWx,2013-03-15 16:47:00,
2013-03-15 11:56:00,41.4,31.0,29.69,NW,318,0.0,0.0,70,0.00,,,0.00,TxWx,2013-03-15 16:56:00,
2013-03-15 12:01:00,40.7,31.0,29.69,ENE,57,0.0,0.0,70,0.00,,,0.00,TxWx,2013-03-15 17:01:00,
2013-03-15 12:11:00,41.9,33.0,29.69,North,350,0.0,0.0,69,0.00,,,0.00,TxWx,2013-03-15 17:11:00,
2013-03-15 12:21:00,41.9,32.0,29.69,ENE,62,0.0,0.0,68,0.00,,,0.00,TxWx,2013-03-15 17:21:00,
2013-03-15 12:26:00,42.1,32.0,29.69,ENE,59,0.0,0.0,68,0.00,,,0.00,TxWx,2013-03-15 17:26:00,
2013-03-15 12:31:00,43.7,33.0,29.69,NNW,335,0.0,0.0,66,0.00,,,0.00,TxWx,2013-03-15 17:31:00,
2013-03-15 12:40:00,43.5,30.0,29.68,ENE,57,0.0,0.0,64,0.00,,,0.00,TxWx,2013-03-15 17:40:00,
2013-03-15 12:45:00,44.0,32.0,29.68,ENE,62,0.0,0.0,64,0.00,,,0.00,TxWx,2013-03-15 17:45:00,
2013-03-15 12:51:00,43.8,32.0,29.68,NW,316,0.0,0.0,64,0.00,,,0.00,TxWx,2013-03-15 17:51:00,
2013-03-15 13:01:00,43.4,31.0,29.68,WNW,295,0.0,0.0,64,0.00,,,0.00,TxWx,2013-03-15 18:01:00,
2013-03-15 13:09:00,43.9,33.0,29.67,ENE,60,0.0,0.0,65,0.00,,,0.00,TxWx,2013-03-15 18:09:00,
2013-03-15 13:15:00,43.9,33.0,29.68,ENE,63,0.0,0.0,65,0.00,,,0.00,TxWx,2013-03-15 18:15:00,
2013-03-15 13:21:00,44.3,33.0,29.67,ENE,60,0.0,0.0,65,0.00,,,0.00,TxWx,2013-03-15 18:21:00,
2013-03-15 13:31:00,44.5,33.0,29.67,ENE,59,0.0,0.0,64,0.00,,,0.00,TxWx,2013-03-15 18:31:00,
2013-03-15 13:36:00,44.2,33.0,29.67,ENE,64,0.0,0.0,65,0.00,,,0.00,TxWx,2013-03-15 18:36:00,
2013-03-15 13:41:00,44.6,34.0,29.67,ENE,63,0.0,0.0,66,0.00,,,0.00,TxWx,2013-03-15 18:41:00,
2013-03-15 13:46:00,44.2,33.0,29.67,ENE,62,0.0,0.0,66,0.00,,,0.00,TxWx,2013-03-15 18:46:00,
2013-03-15 13:51:00,44.3,33.0,29.66,ENE,63,0.0,0.0,66,0.00,,,0.00,TxWx,2013-03-15 18:51:00,
2013-03-15 14:01:00,44.6,34.0,29.66,NE,56,0.0,0.0,66,0.00,,,0.00,TxWx,2013-03-15 19:01:00,
2013-03-15 14:06:00,44.5,33.0,29.66,NE,45,0.0,0.0,66,0.00,,,0.00,TxWx,2013-03-15 19:06:00,
2013-03-15 14:11:00,44.3,33.0,29.65,NE,52,0.0,0.0,66,0.00,,,0.00,TxWx,2013-03-15 19:11:00,
2013-03-15 14:16:00,44.2,34.0,29.65,NE,54,0.0,0.0,67,0.00,,,0.00,TxWx,2013-03-15 19:16:00,
2013-03-15 14:21:00,44.6,35.0,29.65,ENE,60,0.0,0.0,68,0.00,,,0.00,TxWx,2013-03-15 19:21:00,
2013-03-15 14:26:00,44.3,34.0,29.65,NE,52,0.0,0.0,69,0.00,,,0.00,TxWx,2013-03-15 19:26:00,
2013-03-15 14:36:00,44.4,34.0,29.65,NE,54,0.0,0.0,69,0.00,,,0.00,TxWx,2013-03-15 19:36:00,
2013-03-15 14:41:00,44.1,34.0,29.65,NE,56,0.0,0.0,69,0.00,,,0.00,TxWx,2013-03-15 19:41:00,
2013-03-15 14:46:00,44.2,35.0,29.64,NW,316,0.0,0.0,72,0.00,,,0.00,TxWx,2013-03-15 19:46:00,
2013-03-15 14:56:00,44.1,36.0,29.64,ENE,63,0.0,0.0,73,0.00,,,0.00,TxWx,2013-03-15 19:56:00,
2013-03-15 15:01:00,43.9,35.0,29.65,North,350,0.0,0.0,71,0.00,,,0.00,TxWx,2013-03-15 20:01:00,
2013-03-15 15:06:00,43.3,34.0,29.64,NNW,343,0.0,0.0,71,0.00,,,0.00,TxWx,2013-03-15 20:06:00,
2013-03-15 15:16:00,42.6,34.0,29.64,NNW,347,0.0,0.0,72,0.00,,,0.00,TxWx,2013-03-15 20:16:00,
2013-03-15 15:25:00,42.3,34.0,29.64,North,1,0.0,0.0,72,0.00,,,0.00,TxWx,2013-03-15 20:25:00,
2013-03-15 15:31:00,42.4,35.0,29.64,NNW,345,0.0,0.0,75,0.00,,,0.00,TxWx,2013-03-15 20:31:00,
2013-03-15 15:36:00,41.9,35.0,29.64,NNW,337,0.0,0.0,75,0.00,,,0.01,TxWx,2013-03-15 20:36:00,
2013-03-15 15:46:00,41.2,34.0,29.64,North,11,0.0,0.0,77,0.00,,,0.01,TxWx,2013-03-15 20:46:00,
2013-03-15 15:51:00,41.1,34.0,29.64,NNW,348,0.0,0.0,78,0.00,,,0.01,TxWx,2013-03-15 20:51:00,
2013-03-15 15:56:00,40.9,35.0,29.64,North,352,0.0,0.0,79,0.00,,,0.01,TxWx,2013-03-15 20:56:00,
2013-03-15 16:01:00,40.7,35.0,29.64,NNW,344,0.0,0.0,80,0.00,,,0.01,TxWx,2013-03-15 21:01:00,
2013-03-15 16:06:00,40.4,34.0,29.64,North,358,0.0,0.0,80,0.00,,,0.02,TxWx,2013-03-15 21:06:00,
2013-03-15 16:11:00,40.3,34.0,29.64,North,349,0.0,0.0,81,0.00,,,0.02,TxWx,2013-03-15 21:11:00,
2013-03-15 16:16:00,40.2,35.0,29.64,NNW,342,0.0,0.0,82,0.00,,,0.02,TxWx,2013-03-15 21:16:00,
2013-03-15 16:21:00,40.2,35.0,29.63,North,6,0.0,0.0,83,0.00,,,0.02,TxWx,2013-03-15 21:21:00,
2013-03-15 16:26:00,40.2,35.0,29.63,NNW,341,0.0,0.0,84,0.00,,,0.02,TxWx,2013-03-15 21:26:00,
2013-03-15 16:36:00,39.9,36.0,29.63,NW,325,0.0,0.0,86,0.00,,,0.03,TxWx,2013-03-15 21:36:00,
2013-03-15 16:41:00,39.8,36.0,29.63,WNW,296,0.0,0.0,86,0.00,,,0.03,TxWx,2013-03-15 21:41:00,
2013-03-15 16:46:00,39.6,36.0,29.64,NW,319,0.0,0.0,87,0.00,,,0.04,TxWx,2013-03-15 21:46:00,
2013-03-15 16:51:00,39.6,36.0,29.64,North,359,0.0,0.0,87,0.00,,,0.04,TxWx,2013-03-15 21:51:00,
2013-03-15 16:56:00,39.6,37.0,29.64,North,352,0.0,0.0,88,0.00,,,0.04,TxWx,2013-03-15 21:56:00,
2013-03-15 17:05:00,39.3,36.0,29.63,NNW,344,0.0,0.0,89,0.00,,,0.05,TxWx,2013-03-15 22:05:00,
2013-03-15 17:11:00,39.2,36.0,29.63,North,3,0.0,0.0,89,0.00,,,0.06,TxWx,2013-03-15 22:11:00,
2013-03-15 17:21:00,39.0,36.0,29.62,North,1,0.0,0.0,90,0.00,,,0.07,TxWx,2013-03-15 22:21:00,
2013-03-15 17:26:00,38.9,36.0,29.63,NNW,341,0.0,0.0,90,0.00,,,0.07,TxWx,2013-03-15 22:26:00,
2013-03-15 17:31:00,38.9,36.0,29.62,NNE,21,0.0,0.0,90,0.00,,,0.08,TxWx,2013-03-15 22:31:00,
2013-03-15 17:36:00,38.6,36.0,29.62,NNE,15,0.0,0.0,90,0.00,,,0.08,TxWx,2013-03-15 22:36:00,
2013-03-15 17:41:00,38.6,36.0,29.61,NNE,17,0.0,0.0,90,0.00,,,0.09,TxWx,2013-03-15 22:41:00,
2013-03-15 17:46:00,38.6,36.0,29.62,NNW,330,0.0,0.0,91,0.00,,,0.09,TxWx,2013-03-15 22:46:00,
2013-03-15 17:51:00,38.5,37.0,29.61,NNE,24,0.0,0.0,91,0.00,,,0.09,TxWx,2013-03-15 22:51:00,
2013-03-15 17:56:00,38.7,37.0,29.62,NNW,345,0.0,0.0,91,0.00,,,0.10,TxWx,2013-03-15 22:56:00,
2013-03-15 18:01:00,38.6,37.0,29.62,North,350,0.0,0.0,91,0.00,,,0.10,TxWx,2013-03-15 23:01:00,
2013-03-15 18:11:00,38.4,36.0,29.61,North,10,0.0,0.0,92,0.00,,,0.11,TxWx,2013-03-15 23:11:00,
2013-03-15 18:16:00,38.4,36.0,29.62,NNW,346,0.0,0.0,92,0.00,,,0.12,TxWx,2013-03-15 23:16:00,
2013-03-15 18:21:00,38.4,36.0,29.62,North,359,0.0,0.0,92,0.00,,,0.13,TxWx,2013-03-15 23:21:00,
2013-03-15 18:26:00,38.2,36.0,29.62,North,357,0.0,0.0,93,0.00,,,0.14,TxWx,2013-03-15 23:26:00,
2013-03-15 18:36:00,37.8,36.0,29.62,North,360,0.0,0.0,93,0.00,,,0.15,TxWx,2013-03-15 23:36:00,
2013-03-15 18:41:00,37.6,36.0,29.61,NNE,13,0.0,0.0,93,0.00,,,0.16,TxWx,2013-03-15 23:41:00,
2013-03-15 18:46:00,37.6,36.0,29.61,NNE,14,0.0,0.0,93,0.00,,,0.16,TxWx,2013-03-15 23:46:00,
2013-03-15 18:51:00,37.5,35.0,29.60,NNE,13,0.0,0.0,93,0.00,,,0.17,TxWx,2013-03-15 23:51:00,
2013-03-15 18:56:00,37.5,35.0,29.60,North,11,0.0,0.0,93,0.00,,,0.18,TxWx,2013-03-15 23:56:00,
2013-03-15 19:01:00,37.3,35.0,29.60,North,3,0.0,0.0,94,0.00,,,0.19,TxWx,2013-03-16 00:01:00,
2013-03-15 19:06:00,37.2,35.0,29.60,NNE,12,0.0,0.0,94,0.00,,,0.19,TxWx,2013-03-16 00:06:00,
2013-03-15 19:11:00,36.9,35.0,29.60,North,352,0.0,0.0,94,0.00,,,0.20,TxWx,2013-03-16 00:11:00,
2013-03-15 19:16:00,36.8,35.0,29.59,NNE,18,0.0,0.0,94,0.00,,,0.20,TxWx,2013-03-16 00:16:00,
2013-03-15 19:26:00,36.9,35.0,29.59,North,11,0.0,0.0,94,0.00,,,0.21,TxWx,2013-03-16 00:26:00,
2013-03-15 19:31:00,36.9,35.0,29.59,NNE,17,0.0,0.0,94,0.00,,,0.21,TxWx,2013-03-16 00:31:00,
2013-03-15 19:36:00,36.9,35.0,29.59,NNE,21,0.0,0.0,94,0.00,,,0.21,TxWx,2013-03-16 00:36:00,
2013-03-15 19:46:00,36.9,35.0,29.58,NNE,17,0.0,0.0,94,0.00,,,0.22,TxWx,2013-03-16 00:46:00,
2013-03-15 19:51:00,37.0,35.0,29.58,NNE,19,0.0,0.0,94,0.00,,,0.22,TxWx,2013-03-16 00:51:00,
2013-03-15 19:56:00,37.0,35.0,29.58,NNE,22,0.0,0.0,94,0.00,,,0.22,TxWx,2013-03-16 00:56:00,
2013-03-15 20:06:00,36.9,35.0,29.58,NNE,20,0.0,0.0,94,0.00,,,0.22,TxWx,2013-03-16 01:06:00,
2013-03-15 20:16:00,36.9,36.0,29.57,North,10,0.0,0.0,95,0.00,,,0.22,TxWx,2013-03-16 01:16:00,
2013-03-15 20:25:00,36.9,36.0,29.56,NNE,14,0.0,0.0,95,0.00,,,0.22,TxWx,2013-03-16 01:25:00,
2013-03-15 20:31:00,36.9,36.0,29.56,NNE,16,0.0,0.0,95,0.00,,,0.22,TxWx,2013-03-16 01:31:00,
2013-03-15 20:41:00,37.0,36.0,29.56,NNE,19,0.0,0.0,95,0.00,,,0.22,TxWx,2013-03-16 01:41:00,
2013-03-15 20:46:00,37.1,36.0,29.56,NNE,28,0.0,0.0,95,0.00,,,0.22,TxWx,2013-03-16 01:46:00,
2013-03-15 20:51:00,37.0,36.0,29.57,NNE,12,0.0,0.0,95,0.00,,,0.22,TxWx,2013-03-16 01:51:00,
2013-03-15 21:01:00,37.2,36.0,29.58,North,5,0.0,0.0,95,0.00,,,0.23,TxWx,2013-03-16 02:01:00,
2013-03-15 21:10:00,37.3,36.0,29.60,NNW,331,0.0,0.0,95,0.00,,,0.23,TxWx,2013-03-16 02:10:00,
2013-03-15 21:16:00,37.3,36.0,29.60,NNW,343,0.0,0.0,95,0.00,,,0.23,TxWx,2013-03-16 02:16:00,
2013-03-15 21:21:00,37.4,36.0,29.60,NNW,344,0.0,0.0,95,0.00,,,0.23,TxWx,2013-03-16 02:21:00,
2013-03-15 21:27:00,37.3,36.0,29.60,NW,322,0.0,0.0,96,0.00,,,0.23,TxWx,2013-03-16 02:27:00,
2013-03-15 21:32:00,37.4,36.0,29.60,NNW,340,0.0,0.0,96,0.00,,,0.23,TxWx,2013-03-16 02:32:00,
2013-03-15 21:41:00,37.2,36.0,29.60,NNW,339,0.0,0.0,96,0.00,,,0.23,TxWx,2013-03-16 02:41:00,
2013-03-15 21:47:00,37.1,36.0,29.60,NNW,342,0.0,0.0,96,0.00,,,0.23,TxWx,2013-03-16 02:47:00,
2013-03-15 21:52:00,37.0,36.0,29.60,North,354,0.0,0.0,96,0.00,,,0.23,TxWx,2013-03-16 02:52:00,
2013-03-15 22:02:00,37.0,36.0,29.59,North,354,0.0,0.0,96,0.00,,,0.23,TxWx,2013-03-16 03:02:00,
2013-03-15 22:07:00,36.8,36.0,29.59,North,355,0.0,0.0,96,0.00,,,0.23,TxWx,2013-03-16 03:07:00,
2013-03-15 22:16:00,36.8,36.0,29.58,North,4,0.0,0.0,96,0.00,,,0.23,TxWx,2013-03-16 03:16:00,
2013-03-15 22:26:00,36.5,35.0,29.58,NNW,341,0.0,0.0,96,0.00,,,0.23,TxWx,2013-03-16 03:26:00,
2013-03-15 22:31:00,36.2,35.0,29.58,North,358,0.0,0.0,96,0.00,,,0.23,TxWx,2013-03-16 03:31:00,
2013-03-15 22:36:00,36.2,35.0,29.57,NNE,16,0.0,0.0,96,0.00,,,0.23,TxWx,2013-03-16 03:36:00,
2013-03-15 22:41:00,36.2,35.0,29.57,North,2,0.0,0.0,96,0.00,,,0.23,TxWx,2013-03-16 03:41:00,
2013-03-15 22:46:00,36.2,35.0,29.57,North,2,0.0,0.0,96,0.00,,,0.23,TxWx,2013-03-16 03:46:00,
2013-03-15 22:51:00,36.2,35.0,29.56,North,3,0.0,0.0,96,0.00,,,0.23,TxWx,2013-03-16 03:51:00,
2013-03-15 22:56:00,36.3,35.0,29.56,North,357,0.0,0.0,96,0.00,,,0.23,TxWx,2013-03-16 03:56:00,
2013-03-15 23:02:00,36.3,35.0,29.56,NNE,12,0.0,0.0,96,0.00,,,0.23,TxWx,2013-03-16 04:02:00,
2013-03-15 23:03:00,36.3,35.0,29.56,North,4,0.0,0.0,96,0.00,,,0.23,TxWx,2013-03-16 04:03:00,
2013-03-15 23:10:00,36.3,35.0,29.55,NNE,20,0.0,0.0,96,0.00,,,0.23,TxWx,2013-03-16 04:10:00,
2013-03-15 23:16:00,36.3,35.0,29.54,North,9,0.0,0.0,96,0.00,,,0.23,TxWx,2013-03-16 04:16:00,
2013-03-15 23:26:00,36.3,35.0,29.53,North,6,0.0,0.0,96,0.00,,,0.23,TxWx,2013-03-16 04:26:00,
2013-03-15 23:31:00,36.3,35.0,29.52,NNE,13,0.0,0.0,96,0.00,,,0.23,TxWx,2013-03-16 04:31:00,
2013-03-15 23:36:00,36.3,35.0,29.51,NNE,14,0.0,0.0,96,0.00,,,0.23,TxWx,2013-03-16 04:36:00,
2013-03-15 23:46:00,36.3,35.0,29.51,NNE,22,0.0,0.0,96,0.00,,,0.23,TxWx,2013-03-16 04:46:00,
2013-03-15 23:51:00,36.3,35.0,29.51,NNE,26,0.0,0.0,96,0.00,,,0.23,TxWx,2013-03-16 04:51:00,